Weather History for St. Joseph, MO

Change the Weather History Date:

Thursday, January 24, 2013

  Actual Average Record
Temperature  
Mean Temperature 16 °F 28 °F  
Max Temperature 25 °F 38 °F 68 °F (1981)
Min Temperature 7 °F 18 °F -9 °F (1963)
Degree Days  
Heating Degree Days 49 37  
Month to date heating degree days 867 911  
Since 1 July heating degree days 2963 3124  
Cooling Degree Days 0 0  
Month to date cooling degree days 0 0  
Year to date cooling degree days 0 0  
Moisture  
Dew Point 1 °F    
Average Humidity 54    
Maximum Humidity 69    
Minimum Humidity 39    
Precipitation  
Precipitation 0.00 in 0.02 in 0.53 in (1967)
Month to date precipitation 0.30 0.41  
Year to date precipitation 0.30 0.41  
Sea Level Pressure  
Sea Level Pressure 30.43 in    
Wind  
Wind Speed 11 mph (East)    
Max Wind Speed 18 mph    
Max Gust Speed 22 mph    
Visibility 10 miles    
Events      
T = Trace of Precipitation, MM = Missing Value Source: NWS Daily Summary

Daily Weather History Graph

Daily Weather History Graph

Search for Another Location

Airport:

Trip Planner

Search our weather history database for the weather conditions in past years. The results will help you decide how hot, cold, wet, or windy it might be!

Date:

Astronomy

Jan. 24, 2013 Rise Set
Actual Time 7:33 AM CST 5:30 PM CST
Civil Twilight 7:04 AM CST 5:59 PM CST
Nautical Twilight 6:32 AM CST 6:31 PM CST
Astronomical Twilight 6:00 AM CST 7:03 PM CST
Moon 3:33 PM CST (1/24) 5:32 AM CST (1/24)
Length of Visible Light 10h 54m
Length of Day
9h 56m
Waxing Gibbous, 94% of the Moon is Illuminated
Jan 24
Waxing Gibbous
Jan 26
Full
Feb 3
Last Quarter
Feb 10
New
Feb 17
First Quarter

Hourly Weather History & Observations

Time (CST) Temp. Windchill Dew Point Humidity Pressure Visibility Wind Dir Wind Speed Gust Speed Precip Events Conditions
12:53 AM 16.0 °F 0.1 °F 1.0 °F 52% 30.52 in 10.0 mi NNE 17.3 mph 21.9 mph N/A   Clear
1:53 AM 14.0 °F 0.5 °F 1.0 °F 56% 30.54 in 10.0 mi NNE 11.5 mph - N/A   Clear
2:53 AM 10.9 °F -5.9 °F -0.0 °F 61% 30.57 in 10.0 mi NNE 16.1 mph - N/A   Clear
3:53 AM 10.0 °F -5.9 °F -0.9 °F 61% 30.56 in 10.0 mi NNE 13.8 mph - N/A   Clear
4:53 AM 8.1 °F -7.0 °F -2.0 °F 64% 30.56 in 10.0 mi NNE 11.5 mph - N/A   Clear
5:53 AM 8.1 °F -5.3 °F -2.9 °F 61% 30.56 in 10.0 mi ENE 9.2 mph - N/A   Clear
6:53 AM 7.0 °F -8.3 °F -2.9 °F 64% 30.57 in 10.0 mi ENE 11.5 mph - N/A   Clear
7:53 AM 8.1 °F -6.2 °F -2.9 °F 61% 30.57 in 10.0 mi East 10.4 mph - N/A   Clear
8:53 AM 8.1 °F -7.0 °F -2.9 °F 61% 30.59 in 10.0 mi East 11.5 mph - N/A   Clear
9:53 AM 12.0 °F -2.0 °F -2.0 °F 53% 30.59 in 10.0 mi ENE 11.5 mph - N/A   Clear
10:53 AM 14.0 °F 0.5 °F -0.9 °F 52% 30.56 in 10.0 mi ESE 11.5 mph - N/A   Clear
11:53 AM 18.0 °F 8.7 °F -0.0 °F 45% 30.53 in 10.0 mi ESE 6.9 mph - N/A   Clear
12:53 PM 19.9 °F 10.1 °F -0.0 °F 42% 30.48 in 10.0 mi SE 8.1 mph - N/A   Clear
1:53 PM 21.0 °F 8.6 °F -0.0 °F 40% 30.40 in 10.0 mi ESE 12.7 mph - N/A   Clear
2:53 PM 21.9 °F 12.5 °F 1.0 °F 40% 30.39 in 10.0 mi ESE 8.1 mph - N/A   Clear
3:53 PM 23.0 °F 11.7 °F 1.0 °F 39% 30.33 in 10.0 mi ESE 11.5 mph - N/A   Clear
4:53 PM 21.9 °F 9.8 °F 1.9 °F 42% 30.33 in 10.0 mi ESE 12.7 mph - N/A   Scattered Clouds
5:53 PM 21.9 °F 9.8 °F 3.0 °F 44% 30.31 in 10.0 mi ESE 12.7 mph - N/A   Overcast
6:53 PM 23.0 °F 11.7 °F 3.9 °F 44% 30.28 in 10.0 mi ESE 11.5 mph - N/A   Overcast
7:38 PM 23.0 °F 13.1 °F 5.0 °F 46% 30.26 in 10.0 mi SE 9.2 mph - N/A   Overcast
7:53 PM 23.0 °F 13.9 °F 5.0 °F 46% 30.31 in 10.0 mi SE 8.1 mph - N/A   Overcast
8:53 PM 24.1 °F 14.4 °F 6.1 °F 46% 30.28 in 10.0 mi SE 9.2 mph - N/A   Overcast
9:53 PM 24.1 °F 16.0 °F 6.1 °F 46% 30.25 in 10.0 mi SE 6.9 mph - N/A   Overcast
10:53 PM 24.1 °F 15.2 °F 7.0 °F 48% 30.24 in 10.0 mi SSE 8.1 mph - N/A   Overcast
11:53 PM 25.0 °F - 7.0 °F 46% 30.27 in 10.0 mi Calm Calm - N/A   Overcast